Regional Weather Roundup
Issued by NWS

Home | Current Version | Previous Version | Graphics & Text | Print | Product List | Glossary On
Versions: 1 2 3 4 5 6 7 8 9 10 11 12 13 14 15 16 17 18 19 20 21 22 23 24 25 26 27 28 29 30 31 32 33 34 35 36 37 38 39 40 41 42 43 44 45 46 47 48 49 50
000
ASUS43 KOAX 280910
RWRNE

WEATHER ROUNDUP FOR NEBRASKA
NATIONAL WEATHER SERVICE OMAHA NE
400 AM CDT THU MAY 28 2015

NOTES: SATELLITE DATA IS BEING USED TO AUGMENT CLOUD COVER ABOVE
       12000 FEET.
       "FAIR" INDICATES FEW OR NO CLOUDS BELOW 12,000 FEET WITH NO
       SIGNIFICANT WEATHER AND/OR OBSTRUCTIONS TO VISIBILITY.

  * THESE STATIONS DO NOT REPORT WEATHER SUCH AS RAIN...SNOW OR FOG.

NEZ001>004-019>022-054>056-281000-
NEBRASKA PANHANDLE

CITY           SKY/WX    TMP DP  RH WIND       PRES   REMARKS
SCOTTSBLUFF    MOCLDY    56  52  86 E7        30.01F
ALLIANCE       CLOUDY    53  51  93 W8        30.01F
CHADRON        MOCLDY    59  52  77 CALM      29.94S
KIMBALL          N/A    N/A N/A N/A MISG        N/A
SIDNEY         MOCLDY    52  51  97 SE6       30.03F
$$

NEZ057>060-069>072-079>082-281000-
SOUTHWEST NEBRASKA

CITY           SKY/WX    TMP DP  RH WIND       PRES   REMARKS
NORTH PLATTE   PTCLDY    55  53  93 E3        30.01S
IMPERIAL       CLEAR     53  50  89 SE3       30.00S
LEXINGTON      PTCLDY    57  56  96 SE5       30.01R FOG
MCCOOK         MOCLDY    57  52  83 SE3       30.00R
OGALLALA       PTCLDY    55  53  94 NW7       30.00F
$$

NEZ005>010-023>029-035>040-094-281000-
NORTH CENTRAL NEBRASKA

CITY           SKY/WX    TMP DP  RH WIND       PRES   REMARKS
VALENTINE      PTCLDY    56  54  93 SE9       29.97S
AINSWORTH      CLEAR     57  56  97 S7        29.99F
BROKEN BOW     PTCLDY    54  52  93 CALM      29.99F FOG
O`NEILL        PTCLDY    61  58  87 S6        30.00F
ORD            MOCLDY    59  56  89 SE5       29.98F
THEDFORD       PTCLDY    55  54  97 S6        29.99F
$$

NEZ041-046>049-061>064-073>077-083>087-281000-
SOUTH CENTRAL NEBRASKA

CITY           SKY/WX    TMP DP  RH WIND       PRES   REMARKS
GRAND ISLAND   MOCLDY    63  57  81 SE8       30.01F
AURORA         CLOUDY    64  57  80 SE10      30.01F
HASTINGS       CLOUDY    63  58  83 SE10      30.01S
HEBRON         CLOUDY    64  57  77 CALM      30.03R
HOLDREGE       MOCLDY    59  56  92 S6        30.02R
KEARNEY *      CLOUDY    61  57  88 SE9       30.02R
YORK           CLOUDY    63  55  77 SE10      30.02F
$$

NEZ011>018-030>034-042>045-281000-
NORTHEAST NEBRASKA

CITY           SKY/WX    TMP DP  RH WIND       PRES   REMARKS
NORFOLK        PTCLDY    63  52  67 S10       30.02S
ALBION         MOCLDY    62  53  71 SE6       30.02S
BLAIR          MOCLDY    63  51  65 SE5       30.05F
COLUMBUS *     MOCLDY    64  52  63 SE9       30.04F
FREMONT        MOCLDY    62  54  74 SE3       30.04F
TEKAMAH        PTCLDY    59  53  80 S5        30.04S
WAYNE          CLOUDY    64  53  68 SE12      30.03F
$$

NEZ050>053-065>068-078-088>093-281000-
SOUTHEAST NEBRASKA

CITY           SKY/WX    TMP DP  RH WIND       PRES   REMARKS
LINCOLN        CLOUDY    65  54  67 SE5       30.03F
OMAHA EPPLEY   CLOUDY    64  54  69 SE3       30.04F
BEATRICE       CLOUDY    65  56  72 S3        30.03S
NEBRASKA CITY  CLOUDY    64  53  67 SE8       30.05F
PLATTSMOUTH    CLOUDY    61  54  77 E6        30.05F
$$

NEZ044-045-051>053-067-281000-
OMAHA AREA

CITY           SKY/WX    TMP DP  RH WIND       PRES   REMARKS
OMAHA EPPLEY   CLOUDY    64  54  69 SE3       30.04F
BLAIR          MOCLDY    63  51  65 SE5       30.05F
FREMONT        MOCLDY    62  54  74 SE3       30.04F
MILLARD        MOCLDY    60  55  83 CALM      30.04F
OFFUTT AFB     MOCLDY    56  54  95 E5        30.04F
PLATTSMOUTH    CLOUDY    61  54  77 E6        30.05F
WAHOO          FAIR      60  55  81 SE3       30.04F
$$



USA.gov is the U.S. government's official web portal to all federal, state and local government web resources and services.